Hourly Data Report for June 03, 2012

HALIFAX STANFIELD INT'L A
NOVA SCOTIA

44°52'48.060" N
63°30'00.050" W
145.40 m
8202250
71395
YHZ

Download Data

Hourly Data (June 2012)
Hourly Data Report for June 3, 2012
TIME
LST
Temp Definition
°C
Dew Point Definition
°C
Rel Hum Definition
%
Precip. Amount Definition
mm

Wind Dir Definition
10's deg

Wind Spd Definition
km/h
Visibility Definition
km
Stn Press Definition
kPa
Hmdx Definition


Wind Chill Definition


Weather Definition


00:00 9.5 7.3 86     0 24.1 99.97     Cloudy
01:00 9.8 7.8 87   13 9 24.1 99.90     Cloudy
02:00 8.5 7.7 95   10 13 24.1 99.84     Cloudy
03:00 8.4 7.7 95   12 6 24.1 99.80     Cloudy
04:00 8.2 7.5 95   10 11 24.1 99.77     Mostly Cloudy
05:00 7.9 7.1 95   9 15 24.1 99.71     Mostly Cloudy
06:00 9.1 7.8 92   9 17 24.1 99.72     Mostly Cloudy
07:00 11.3 8.6 83   10 15 24.1 99.73     Mostly Cloudy
08:00 12.0 8.6 80   11 15 24.1 99.76     Mostly Cloudy
09:00 13.0 8.7 75   11 19 24.1 99.69     Mostly Cloudy
10:00 14.6 9.0 69   11 17 24.1 99.68     Mostly Cloudy
11:00 14.9 7.7 62   14 20 24.1 99.66     Mostly Cloudy
12:00 14.8 7.8 63   10 20 24.1 99.63     Mostly Cloudy
13:00 14.7 8.1 65   14 22 24.1 99.60     Mostly Cloudy
14:00 15.2 8.9 66   14 19 24.1 99.49     Mostly Cloudy
15:00 15.7 8.3 61   12 22 24.1 99.39     Mostly Cloudy
16:00 14.6 7.0 60   9 32 24.1 99.33     Mostly Cloudy
17:00 13.5 6.5 63   12 26 24.1 99.36     Mostly Cloudy
18:00 12.1 6.7 70   11 24 24.1 99.29     Mostly Cloudy
19:00 11.1 6.7 74   12 19 24.1 99.31     Mostly Cloudy
20:00 10.4 6.7 78   9 15 24.1 99.26     Mostly Cloudy
21:00 10.1 6.7 79   7 15 24.1 99.24     Mostly Cloudy
22:00 9.7 6.2 79   8 20 24.1 99.16     Cloudy
23:00 9.3 6.1 80   9 13 24.1 99.18     Cloudy

Notes on Data Quality.

Legend

  • E = Estimated
  • M = Missing
  • NA = Not Available*
  • [empty] = Indicates an unobserved value
Date modified: